WetterOnline ( https://www.wetteronline.ch )

Wetter aktuell Kaisersbach

Aktuelles Wetter: Kaisersbach-Cronhütte (489m)

6-stündlich | Neueste Meldungen
Ortszeit Temperatur Wetter
So, 19.01. 19:00 -0.5° C Nebel
So, 19.01. 13:00 0.9° C bedeckt
So, 19.01. 7:00 0.1° C Regen
So, 19.01. 1:00 0.7° C bedeckt
Sa, 18.01. 19:00 0.7° C bedeckt
Sa, 18.01. 13:00 4.5° C bewölkt
Sa, 18.01. 7:00 3.2° C bewölkt
Sa, 18.01. 1:00 5.2° C bedeckt
Ortszeit Temperatur Wetter
Mo, 20.01. 0:00 -0.3° C bedeckt
So, 19.01. 23:50 -0.3° C bedeckt
So, 19.01. 23:40 -0.5° C bewölkt
So, 19.01. 23:30 -0.9° C bewölkt
So, 19.01. 23:20 -0.9° C bewölkt
So, 19.01. 23:10 -0.7° C bewölkt
So, 19.01. 23:00 -0.2° C wolkig
So, 19.01. 22:30 0.1° C bewölkt
So, 19.01. 22:00 0.1° C bedeckt
So, 19.01. 21:30 0.1° C bedeckt
So, 19.01. 21:00 -0.4° C bedeckt
Ortszeit Relative Feuchte Sichtweite
So, 19.01. 19:00 99% 0.3 km
So, 19.01. 13:00 92% 12 km
So, 19.01. 7:00 95% 7 km
So, 19.01. 1:00 94% 9 km
Sa, 18.01. 19:00 96% 28 km
Sa, 18.01. 13:00 72% 70 km
Sa, 18.01. 7:00 92% 35 km
Sa, 18.01. 1:00 94% 24 km
Ortszeit Relative Feuchte Sichtweite
Mo, 20.01. 0:00 97% 13 km
So, 19.01. 23:50 97% -
So, 19.01. 23:40 98% -
So, 19.01. 23:30 97% 5.0 km
So, 19.01. 23:20 97% -
So, 19.01. 23:10 97% -
So, 19.01. 23:00 95% 17 km
So, 19.01. 22:30 96% 19 km
So, 19.01. 22:00 96% 21 km
So, 19.01. 21:30 97% 12 km
So, 19.01. 21:00 97% 4.7 km
Ortszeit Niederschlagsmenge Niederschlagsart
So, 19.01. 19:00 0.4 l/m2 in 12 Std. Schnee, Regen
So, 19.01. 13:00 0.4 l/m2 in 6 Std. Schnee, Sprühregen
So, 19.01. 7:00 0.2 l/m2 in 12 Std. Schnee, Sprühregen
So, 19.01. 1:00 0.0 l/m2 in 6 Std. -
Sa, 18.01. 19:00 2 l/m2 in 12 Std. Schnee, Regen
Sa, 18.01. 13:00 0.0 l/m2 in 6 Std. -
Sa, 18.01. 7:00 2 l/m2 in 12 Std. Sprühregen
Sa, 18.01. 1:00 2 l/m2 in 6 Std. Regen
Ortszeit Niederschlagsmenge Niederschlagsart
Mo, 20.01. 0:00 0.0 l/m2 in 1 Std. -
So, 19.01. 23:50 keine Meldung -
So, 19.01. 23:40 keine Meldung -
So, 19.01. 23:30 0.0 l/m2 in 1 Std. -
So, 19.01. 23:20 keine Meldung -
So, 19.01. 23:10 keine Meldung -
So, 19.01. 23:00 0.0 l/m2 in 1 Std. -
So, 19.01. 22:30 0.0 l/m2 in 1 Std. -
So, 19.01. 22:00 0.0 l/m2 in 1 Std. -
So, 19.01. 21:30 0.0 l/m2 in 1 Std. -
So, 19.01. 21:00 0.0 l/m2 in 1 Std. -
Ortszeit Stärke Spitze Richtung
km/h Bft. km/h Grad Sektor
So, 19.01. 19:00 0 0 18 - -
So, 19.01. 13:00 4 1 14 300° NW
So, 19.01. 7:00 4 1 14 280° W
So, 19.01. 1:00 7 2 14 280° W
Sa, 18.01. 19:00 4 1 32 290° W
Sa, 18.01. 13:00 9 2 24 240° SW
Sa, 18.01. 7:00 9 2 30 260° W
Sa, 18.01. 1:00 11 2 25 270° W
Ortszeit Stärke Spitze Richtung
km/h Bft. km/h Grad Sektor
Mo, 20.01. 0:00 4 1 7 330° NW
So, 19.01. 23:50 4 1 - 330° NW
So, 19.01. 23:40 4 1 - 340° N
So, 19.01. 23:30 0 0 4 - -
So, 19.01. 23:20 0 0 - 60° NO
So, 19.01. 23:10 2 1 - 90° O
So, 19.01. 23:00 4 1 11 340° N
So, 19.01. 22:30 6 1 9 340° N
So, 19.01. 22:00 4 1 7 330° NW
So, 19.01. 21:30 4 1 7 10° N
So, 19.01. 21:00 4 1 7 310° NW
Ortszeit Untergrenze Bedeckung Gattung
total tief tief mittel hoch
So, 19.01. 19:00 1500 m 1/8 1/8 - - -
So, 19.01. 13:00 180 m 8/8 8/8 - - -
So, 19.01. 7:00 180 m 8/8 8/8 - - -
So, 19.01. 1:00 240 m 8/8 8/8 - - -
Sa, 18.01. 19:00 840 m 8/8 8/8 - - -
Sa, 18.01. 13:00 810 m 7/8 7/8 - - -
Sa, 18.01. 7:00 390 m 8/8 7/8 - - -
Sa, 18.01. 1:00 270 m 8/8 8/8 - - -
Ortszeit Bedeckungsgrad in Achtel und Wolkenuntergrenze
Mo, 20.01. 0:00 8(1500m)
So, 19.01. 23:50 8(1500m)
So, 19.01. 23:40 7(1500m)
So, 19.01. 23:30 7(1500m)
So, 19.01. 23:20 7(1500m)
So, 19.01. 23:10 7(1500m)
So, 19.01. 23:00 6(1500m)
So, 19.01. 22:30 7(1500m)
So, 19.01. 22:00 8(1500m)
So, 19.01. 21:30 8(1410m)
So, 19.01. 21:00 1(570m) 8(1470m)
Ortszeit Luftdruck NN (hPa) Tendenz (hPa in 3 Std.)
So, 19.01. 19:00 1041 + 2,4
So, 19.01. 13:00 1037 + 1,5
So, 19.01. 7:00 1033 + 1,2
So, 19.01. 1:00 1031 + 0,5
Sa, 18.01. 19:00 1029 + 1,3
Sa, 18.01. 13:00 1027 - 0,6
Sa, 18.01. 7:00 1027 + 1,4
Sa, 18.01. 1:00 1023 + 1,0
Ortszeit Luftdruck NN (hPa) Tendenz (hPa in 3 Std.)
Mo, 20.01. 0:00 1044 + 1,5
So, 19.01. 23:50 1044 keine Meldung
So, 19.01. 23:40 1044 keine Meldung
So, 19.01. 23:30 1044 + 1,8
So, 19.01. 23:20 1044 keine Meldung
So, 19.01. 23:10 1044 keine Meldung
So, 19.01. 23:00 1044 + 1,6
So, 19.01. 22:30 1043 + 1,7
So, 19.01. 22:00 1043 + 2,1
So, 19.01. 21:30 1043 + 2,1
So, 19.01. 21:00 1043 + 2,3
Ortszeit Schneehöhe (cm)
So, 19.01. 19:00 0
So, 19.01. 13:00 0
So, 19.01. 7:00 -
So, 19.01. 1:00 0
Sa, 18.01. 19:00 0
Sa, 18.01. 13:00 0
Sa, 18.01. 7:00 0
Sa, 18.01. 1:00 0
Ortszeit Schneehöhe (cm)
Mo, 20.01. 0:00 0
So, 19.01. 23:50 0
So, 19.01. 23:40 0
So, 19.01. 23:30 0
So, 19.01. 23:20 0
So, 19.01. 23:10 0
So, 19.01. 23:00 0
So, 19.01. 22:30 0
So, 19.01. 22:00 0
So, 19.01. 21:30 0
So, 19.01. 21:00 0
Link zu dieser Seite / Seite empfehlen

Das Wetter in ...